Weather History for Ogden, UT

Change the Weather History Date:

Tuesday, September 3, 2013

  Actual Average Record
Temperature  
Mean Temperature 75 °F -  
Max Temperature 84 °F 85 °F 97 °F (1950)
Min Temperature 64 °F 53 °F 38 °F (1943)
Cooling Degree Days 10    
Growing Degree Days 25 (Base 50)    
Moisture  
Dew Point 59 °F    
Average Humidity 65    
Maximum Humidity 87    
Minimum Humidity 38    
Precipitation  
Precipitation 0.04 in - - ()
Sea Level Pressure  
Sea Level Pressure 30.00 in    
Wind  
Wind Speed 8 mph (NW)    
Max Wind Speed 17 mph    
Max Gust Speed 24 mph    
Visibility 10 miles    
Events Rain , Thunderstorm    
Averages and records for this station are not official NWS values.
T = Trace of Precipitation, MM = Missing Value Source: NWS Daily Summary

Daily Weather History Graph

Daily Weather History Graph

Search for Another Location

Airport:

Trip Planner

Search our weather history database for the weather conditions in past years. The results will help you decide how hot, cold, wet, or windy it might be!

Date:

Astronomy

Sep. 03, 2013 Rise Set
Actual Time 6:56 AM MDT 7:56 PM MDT
Civil Twilight 6:28 AM MDT 8:25 PM MDT
Nautical Twilight 5:55 AM MDT 8:58 PM MDT
Astronomical Twilight 5:19 AM MDT 9:33 PM MDT
Moon 5:13 AM MDT (9/3) 6:46 PM MDT (9/3)
Length of Visible Light 13h 56m
Length of Day
13h 00m
Waning Crescent, 3% of the Moon is Illuminated
Sep 3
Waning Crescent
Sep 5
New
Sep 12
First Quarter
Sep 19
Full
Sep 26
Last Quarter

Hourly Weather History & Observations

Time (MDT) Temp. Heat Index Dew Point Humidity Pressure Visibility Wind Dir Wind Speed Gust Speed Precip Events Conditions
12:17 AM 69.8 °F - 60.8 °F 73% 30.12 in 10.0 mi NNW 11.5 mph - 0.00 in Rain Light Rain
12:53 AM 69.1 °F - 60.1 °F 73% 29.98 in 10.0 mi North 17.3 mph 24.2 mph 0.00 in   Mostly Cloudy
1:28 AM 66.2 °F - 59.0 °F 78% 30.13 in 10.0 mi North 11.5 mph 19.6 mph 0.03 in Thunderstorm Scattered Clouds
1:43 AM 66.2 °F - 57.2 °F 73% 30.12 in 10.0 mi North 10.4 mph - 0.03 in   Partly Cloudy
1:53 AM 68.0 °F - 57.9 °F 70% 29.96 in 10.0 mi NNE 11.5 mph - 0.03 in   Scattered Clouds
2:53 AM 66.9 °F - 57.9 °F 73% 29.96 in 10.0 mi NW 9.2 mph - N/A   Partly Cloudy
3:53 AM 66.9 °F - 59.0 °F 76% 29.95 in 10.0 mi SSE 3.5 mph - N/A   Clear
4:53 AM 70.0 °F - 57.0 °F 63% 29.93 in 10.0 mi South 6.9 mph - N/A   Clear
5:53 AM 69.1 °F - 55.9 °F 63% 29.95 in 10.0 mi South 9.2 mph - N/A   Clear
6:53 AM 66.9 °F - 55.9 °F 68% 29.96 in 10.0 mi SSE 5.8 mph - N/A   Clear
7:53 AM 66.9 °F - 57.9 °F 73% 29.98 in 10.0 mi SSW 5.8 mph - N/A   Clear
8:53 AM 70.0 °F - 57.0 °F 63% 29.98 in 10.0 mi SSW 3.5 mph - N/A   Clear
9:53 AM 73.0 °F - 57.9 °F 59% 29.99 in 10.0 mi Calm Calm - N/A   Clear
10:53 AM 77.0 °F - 57.0 °F 50% 29.99 in 10.0 mi NNW 3.5 mph - N/A   Clear
11:53 AM 80.1 °F 80.6 °F 57.9 °F 47% 29.98 in 10.0 mi Variable 4.6 mph - N/A   Clear
12:53 PM 82.9 °F 82.8 °F 59.0 °F 44% 29.97 in 10.0 mi North 4.6 mph - N/A   Clear
1:53 PM 84.9 °F 83.9 °F 57.0 °F 38% 29.95 in 10.0 mi NNW 6.9 mph - N/A   Clear
2:53 PM 80.1 °F 80.4 °F 57.0 °F 45% 29.97 in 10.0 mi WSW 13.8 mph - N/A   Clear
3:53 PM 75.0 °F - 57.9 °F 55% 29.97 in 10.0 mi West 6.9 mph - N/A   Clear
4:53 PM 73.0 °F - 59.0 °F 61% 30.01 in 10.0 mi West 11.5 mph 24.2 mph N/A Thunderstorm Mostly Cloudy
5:40 PM 73.4 °F - 60.8 °F 65% 30.15 in 10.0 mi NNE 6.9 mph - 0.01 in Rain Light Rain
5:53 PM 73.0 °F - 60.1 °F 64% 29.99 in 10.0 mi NE 9.2 mph - 0.01 in   Scattered Clouds
6:53 PM 73.9 °F - 57.9 °F 57% 29.96 in 10.0 mi NW 3.5 mph - N/A   Clear
7:53 PM 70.0 °F - 59.0 °F 68% 29.99 in 10.0 mi Calm Calm - N/A   Scattered Clouds
8:53 PM 68.0 °F - 61.0 °F 78% 30.00 in 10.0 mi Calm Calm - N/A   Clear
9:53 PM 68.0 °F - 61.0 °F 78% 30.01 in 10.0 mi Calm Calm - N/A   Scattered Clouds
10:53 PM 66.0 °F - 61.0 °F 84% 30.02 in 10.0 mi SSE 3.5 mph - N/A   Clear
11:53 PM 64.0 °F - 60.1 °F 87% 30.01 in 10.0 mi SSW 4.6 mph - N/A   Clear